Weather History for Hill City, KS

Change the Weather History Date:

Friday, March 8, 2013

  Actual Average Record
Temperature  
Mean Temperature 48 °F 39 °F  
Max Temperature 66 °F 53 °F 79 °F (1974)
Min Temperature 30 °F 25 °F -3 °F (1967)
Degree Days  
Heating Degree Days 18    
Moisture  
Dew Point 41 °F    
Average Humidity 76    
Maximum Humidity 92    
Minimum Humidity 52    
Precipitation  
Precipitation T in 0.05 in 0.08 in (2011)
Month to date precipitation 0.01 0.30  
Year to date precipitation 1.20 1.27  
Sea Level Pressure  
Sea Level Pressure 29.88 in    
Wind  
Wind Speed 9 mph (SE)    
Max Wind Speed 18 mph    
Max Gust Speed 25 mph    
Visibility 10 miles    
Events      
T = Trace of Precipitation, MM = Missing Value Source: NWS Daily Summary

Daily Weather History Graph

Daily Weather History Graph

Search for Another Location

Airport:

Trip Planner

Search our weather history database for the weather conditions in past years. The results will help you decide how hot, cold, wet, or windy it might be!

Date:

Astronomy

Mar. 08, 2013 Rise Set
Actual Time 7:01 AM CST 6:39 PM CST
Civil Twilight 6:34 AM CST 7:06 PM CST
Nautical Twilight 6:03 AM CST 7:37 PM CST
Astronomical Twilight 5:32 AM CST 8:08 PM CST
Moon 4:45 AM CST (3/8) 3:37 PM CST (3/8)
Length of Visible Light 12h 31m
Length of Day
11h 38m
Waning Crescent, 11% of the Moon is Illuminated
Mar 8
Waning Crescent
Mar 11
New
Mar 19
First Quarter
Mar 27
Full
Apr 2
Last Quarter

Hourly Weather History & Observations

Time (CST) Temp. Windchill Dew Point Humidity Pressure Visibility Wind Dir Wind Speed Gust Speed Precip Events Conditions
12:53 AM 34.0 °F 28.0 °F 28.9 °F 82% 30.02 in 10.0 mi ENE 6.9 mph - N/A   Clear
1:53 AM 30.9 °F 26.2 °F 28.0 °F 89% 30.02 in 10.0 mi ESE 4.6 mph - N/A   Clear
2:53 AM 33.1 °F 27.7 °F 30.0 °F 89% 29.99 in 10.0 mi ENE 5.8 mph - N/A   Clear
3:53 AM 30.9 °F 25.2 °F 28.9 °F 92% 29.96 in 10.0 mi East 5.8 mph - N/A   Clear
4:53 AM 32.0 °F 26.4 °F 30.0 °F 92% 29.97 in 10.0 mi ENE 5.8 mph - N/A   Clear
6:53 AM 32.0 °F 28.7 °F 28.9 °F 88% 29.99 in 10.0 mi East 3.5 mph - N/A   Clear
7:53 AM 33.1 °F 27.7 °F 30.0 °F 89% 29.99 in 9.0 mi East 5.8 mph - N/A   Partly Cloudy
9:53 AM 41.0 °F 38.0 °F 35.1 °F 79% 30.00 in 10.0 mi ENE 4.6 mph - N/A   Partly Cloudy
10:53 AM 50.0 °F - 39.0 °F 66% 29.97 in 10.0 mi SSE 15.0 mph 20.7 mph N/A   Clear
11:53 AM 55.0 °F - 41.0 °F 59% 29.93 in 10.0 mi SSE 12.7 mph 17.3 mph N/A   Scattered Clouds
12:53 PM 57.9 °F - 41.0 °F 53% 29.90 in 10.0 mi SSE 12.7 mph 20.7 mph N/A   Clear
1:53 PM 61.0 °F - 43.0 °F 52% 29.86 in 10.0 mi SSE 12.7 mph 21.9 mph N/A   Partly Cloudy
2:53 PM 61.0 °F - 44.1 °F 54% 29.84 in 10.0 mi South 17.3 mph 23.0 mph N/A   Clear
3:53 PM 64.0 °F - 46.9 °F 54% 29.80 in 10.0 mi SSE 18.4 mph 23.0 mph N/A   Clear
4:53 PM 62.1 °F - 48.9 °F 62% 29.78 in 10.0 mi SSE 16.1 mph 25.3 mph N/A   Clear
5:53 PM 59.0 °F - 48.9 °F 69% 29.78 in 10.0 mi SE 13.8 mph - N/A   Partly Cloudy
6:06 PM 57.2 °F - 48.2 °F 72% 29.78 in 10.0 mi SE 15.0 mph 20.7 mph N/A   Mostly Cloudy
6:53 PM 57.0 °F - 51.1 °F 81% 29.80 in 10.0 mi South 11.5 mph 19.6 mph N/A   Overcast
7:53 PM 55.9 °F - 52.0 °F 87% 29.79 in 10.0 mi SSE 12.7 mph - 0.00 in   Overcast
8:53 PM 55.9 °F - 52.0 °F 87% 29.77 in 10.0 mi SSE 13.8 mph 21.9 mph N/A   Overcast
9:53 PM 55.9 °F - 52.0 °F 87% 29.77 in 10.0 mi South 17.3 mph 25.3 mph N/A   Overcast
10:53 PM 57.0 °F - 52.0 °F 83% 29.73 in 10.0 mi South 13.8 mph 19.6 mph N/A   Overcast
11:53 PM 57.0 °F - 53.1 °F 87% 29.71 in 10.0 mi SSE 15.0 mph 20.7 mph N/A   Overcast